Flag for Germany Weather past 2 weeks in Dreieich, Hesse, Germany

Now
69 °F

Clear.


Feels Like: 69 °F
Forecast: 69 / 90 °F
Wind: 3 mph from Northeast

Location: Frankfurt / M-Flughafen

Current Time: Jul 1, 2015 at 4:34:11 AM

Latest Report: Jul 1, 2015 at 4:00 AM


Visibility: 31 mi

Pressure: 30.11 "Hg

Humidity: 59%

Dew point: 53 °F

Location of DreieichLocation

Historic Weather in Dreieich — Graph

°F

Dreieich temperature yesterday

Maximum temperature yesterday: 85 °F (at 6:00 PM)
Minimum temperature yesterday: 56 °F (at 6:00 AM)
Average temperature yesterday: 73 °F

Past Weeks' High & Low Weather Summary

 TemperatureHumidityPressure
High85 °F (Jun 30, 6:00 PM)100% (Jun 22, 2:00 AM)30.29 "Hg (Jun 22, 2:00 AM)
Low49 °F (Jun 23, 6:00 AM)20% (Jun 17, 3:00 PM)29.70 "Hg (Jun 22, 11:00 PM)
Average62 °F68%30.09 "Hg
* Reported Jun 16 3:00 AM — Jul 1 3:00 AM, Dreieich, Weather by CustomWeather, © 2015

Note: Actual official high and low records may vary slightly from our data, if they occured in-between our weather recording intervals... More about our weather records

Advertising

Dreieich weather history for previous 24 hours

 ConditionsComfort  
Time TempWeatherWind HumidityBarometerVisibility
3:00 AM
Wed, Jul 1
69 °FClear.2 mph58%30.11 "Hg31 mi
2:00 AM70 °FClear.2 mph57%30.11 "Hg31 mi
1:00 AM71 °FClear.2 mph57%30.10 "Hg34 mi
12:00 AM72 °FClear.2 mph52%30.10 "Hg37 mi
11:00 PM
Tue, Jun 30
78 °FClear.2 mph38%30.09 "Hg37 mi
10:00 PM79 °FClear.2 mph37%30.09 "Hg37 mi
9:00 PM83 °FSunny.2 mph27%30.07 "Hg40 mi
8:00 PM84 °FSunny.3 mph24%30.07 "Hg47 mi
7:00 PM85 °FSunny.3 mph21%30.08 "Hg47 mi
6:00 PM85 °FSunny.2 mph23%30.08 "Hg47 mi
4:00 PM84 °FPassing clouds.2 mph22%30.11 "Hg47 mi
3:00 PM83 °FPassing clouds.2 mph25%30.12 "Hg43 mi
2:00 PM81 °FPassing clouds.3 mph28%30.14 "Hg43 mi
1:00 PM79 °FPassing clouds.5 mph26%30.15 "Hg31 mi
12:00 PM78 °FPassing clouds.3 mph31%30.16 "Hg31 mi
10:00 AM74 °FPassing clouds.5 mph46%30.18 "Hg31 mi
9:00 AM71 °FMild.5 mph53%30.18 "HgN/A
8:00 AM69 °FPassing clouds.3 mph55%30.17 "Hg31 mi
7:00 AM61 °FPassing clouds.2 mph89%30.17 "Hg31 mi
6:00 AM56 °FScattered clouds.1 mph93%30.17 "Hg28 mi
5:00 AM58 °FPassing clouds.2 mph83%30.16 "Hg34 mi
4:00 AM59 °FPassing clouds.2 mph81%30.16 "Hg34 mi
Weather by CustomWeather, © 2015

See weather overviewHow to use our weather pages